SERT 2

Last updated on Mon Sep 21 2026 00:02:07 GMT+0000 (Coordinated Universal Time)

1 04327U 70009A 26263.47703381 -.00000002 00000+0 54183-4 0 9991 2 04327 99.2873 196.0842 0005522 36.3448 78.6239 13.58746247806341
UTC large
Height (km)
Speed (km/s)
/
Latitude / Longitude
Inclination (degrees)
Orbital Period (minutes)
Azimuth
Elevation
Range (km)
Doppler Factor

Next 0 passes for location: London (51.5072 / 0.1276)

No passes found over London.
SERT 2